Location: ??
(34.9170°N, 135.5016°E)
Time: 18:52:42
(UTC+00:00)

SJ-12 - Pass Details

Date: 29 October 2020
Orbit: 568 x 586 km, 97.7° (Epoch: 30 November)

Event Time Altitude Azimuth Distance (km) Brightness Sun altitude
Rises 19:55:58 0° 12° (NNE) 2,800 7.5 -17.1°
Reaches altitude 10° 19:58:08 10° 14° (NNE) 1,894 6.6 -16.7°
Maximum altitude 20:02:14 82° 102° (ESE) 584 3.9 -15.8°
Drops below altitude 10° 20:06:18 10° 190° (S) 1,870 6.5 -15.0°
Sets 20:08:25 0° 191° (S) 2,760 7.4 -14.6°
